[[{"header":{"parameterUnit":"m.s-1","parameterCategory":1,"la1":30.2991,"la2":30.254,"lo1":-89.0895,"lo2":-89.0444,"dx":0.0017,"dy":0.0017,"nx":28,"ny":28,"refTime":"2022-12-30T15:00:00:Z","depth":0,"parameterNumber":2,"parameterNumberName":"U-component_of_WINDS"},"data":[0,0,0,0,0,0,0,0,0,0,0,0,0,0,0,0,0,0,0,0,0,0,0,0,0,0,0,0,0,0,0,0,0,0,0,0,0,0,0,0,0,0,0,0,0,0,0,0,0,0,0,0,0,0,0,0,0,0,1.5021,1.5022,0,1.5057,1.5058,1.5058,1.5058,1.5057,1.5057,1.5056,1.5094,1.5095,1.5097,0,0,0,0,0,0,0,0,0,0,0,0,0,1.4955,1.4957,1.5021,1.5022,1.5022,1.5057,1.5058,1.5058,1.5058,1.5057,1.5057,1.5056,1.5093,1.5095,1.5097,0,0,0,0,0,0,0,0,0,0,0,0,0,1.4987,1.4957,1.5021,1.5026,1.5027,1.5057,1.5058,1.5058,1.5058,1.5057,1.5057,1.5056,1.5093,1.5095,1.5097,1.5124,0,0,1.5104,1.5104,0,0,0,0,0,0,0,0,1.4985,1.4989,1.5025,1.5026,1.5027,1.5052,1.5048,1.508,1.5058,1.5046,1.5056,1.5056,1.5081,1.5084,1.5092,1.5126,1.5128,1.5104,1.5105,1.5106,1.5107,0,0,0,0,0,0,0,1.4983,1.4988,1.5036,1.5026,1.5027,1.5028,1.5031,1.5054,1.5067,1.5047,1.5047,1.5052,1.5081,1.509,1.5093,1.5128,1.5104,1.5106,1.5107,1.5108,1.5191,1.5192,0,0,0,0,0,0,1.4979,1.4986,1.5034,1.5037,1.5004,1.5029,1.5034,1.5045,1.5067,1.5069,1.5052,1.5051,1.5087,1.509,1.5094,1.513,1.5106,1.5108,1.5109,1.519,1.5191,1.5192,0,0,0,0,0,0,1.4978,1.4984,1.5033,1.5011,1.5018,1.5031,1.5044,1.5046,1.5055,1.507,1.5073,1.5059,1.5086,1.5091,1.5118,1.5132,1.5109,1.5111,1.5189,1.519,1.5192,1.5201,0,0,0,0,0,0,1.4976,1.4983,1.4993,1.5012,1.5019,1.5055,1.5045,1.5047,1.5059,1.5058,1.5077,1.508,1.5086,1.5115,1.512,1.5134,1.5113,1.5188,1.519,1.5191,1.52,1.5203,1.5206,0,0,0,0,0,1.4974,1.4994,1.4993,1.4999,1.5031,1.5056,1.506,1.5066,1.506,1.507,1.5081,1.5079,1.5129,1.5117,1.5123,1.5138,1.5187,1.5189,1.5191,1.5199,1.5202,1.5206,0,0,0,0,0,0,1.4975,1.4996,1.4996,1.5022,1.5037,1.5056,1.5069,1.507,1.5087,1.5086,1.5093,1.5098,1.5125,1.5134,1.5121,1.5168,1.5157,1.5161,1.5161,1.5165,1.5168,1.5165,1.5114,0,0,0,0,0,1.4979,1.4997,1.5014,1.5035,1.5043,1.5055,1.5066,1.507,1.5086,1.5092,1.5104,1.512,1.514,1.5153,1.5171,1.5201,1.5207,1.5215,1.5218,1.522,1.5223,1.5243,1.5248,1.5199,1.5199,1.5199,0,0,1.4986,1.5,1.501,1.5036,1.5048,1.5068,1.506,1.508,1.5095,1.5095,1.5122,1.5132,1.515,1.518,1.5193,1.5188,1.5238,1.5223,1.5224,1.5226,1.5246,1.525,1.5254,1.52,1.52,1.52,0,0,1.501,1.5021,1.5041,1.5054,1.5073,1.5082,1.5087,1.5106,1.5113,1.5139,1.5141,1.5159,1.5192,1.5206,1.5218,1.525,1.5251,1.5256,1.5271,1.529,1.5294,1.5298,1.5312,1.5317,1.5259,1.5259,1.5259,0,1.5016,1.5045,1.5052,1.5073,1.5086,1.5088,1.511,1.5122,1.5146,1.5155,1.5149,1.5193,1.5205,1.524,1.5248,1.5256,1.5264,1.5254,1.5293,1.5297,1.53,1.5314,1.5319,1.526,1.526,1.526,1.526,0,1.5054,1.5074,1.5089,1.5113,1.5127,1.5149,1.516,1.5174,1.5178,1.5187,1.5216,1.5232,1.5255,1.5263,1.5266,1.5299,1.5296,1.5291,1.5281,1.5305,1.5319,1.5324,1.5261,1.5261,1.526,1.526,0,0,1.5078,1.5108,1.5113,1.5126,1.5149,1.5165,1.5188,1.5211,1.5224,1.5241,1.5262,1.5291,1.5289,1.5302,1.5307,1.5323,1.5352,1.5318,1.5318,1.5325,1.5393,1.5397,1.5403,1.5352,1.5353,1.5354,1.5392,0,1.5105,1.5146,1.5154,1.5189,1.521,1.5214,1.5234,1.5251,1.5261,1.5281,1.5292,1.5314,1.5307,1.5316,1.5332,1.5345,1.5366,1.5342,1.5374,1.5375,1.537,1.5409,1.5413,1.5448,1.5397,1.5398,1.5398,0,1.5142,1.5162,1.52,1.5223,1.5232,1.525,1.5274,1.5292,1.5312,1.5319,1.5335,1.5339,1.5365,1.5353,1.5391,1.5374,1.5388,1.5397,1.5398,1.5402,1.5389,1.5416,1.5459,1.5465,1.5406,1.5405,1.5405,0,1.5159,1.5195,1.5223,1.5233,1.526,1.5273,1.5285,1.5305,1.532,1.5341,1.5351,1.5375,1.5388,1.5407,1.5418,1.5408,1.5456,1.5444,1.5464,1.5464,1.5474,1.5474,1.5522,1.548,1.548,1.548,1.548,0,1.5189,1.5213,1.5231,1.5248,1.5276,1.5286,1.5314,1.5326,1.5344,1.5365,1.5369,1.5389,1.5402,1.5425,1.5433,1.5465,1.547,1.5478,1.548,1.5478,1.5478,1.5488,1.5487,1.5481,1.5481,1.5481,1.5481,0,1.5212,1.5225,1.5256,1.528,1.5287,1.5307,1.5328,1.5346,1.5357,1.5384,1.5391,1.5409,1.5436,1.5449,1.5482,1.5488,1.5525,1.5525,1.5518,1.5519,1.5539,1.5538,1.5597,1.5606,1.5557,1.5557,1.5558,0,1.5231,1.525,1.5277,1.5291,1.5304,1.5327,1.5343,1.5355,1.5371,1.5398,1.5414,1.5441,1.5464,1.5507,1.5524,1.555,1.5552,1.5571,1.5555,1.5554,1.5555,1.5554,1.5558,1.5573,1.5574,1.5574,1.5575,0,1.5264,1.5271,1.5293,1.5319,1.5338,1.5359,1.5379,1.5391,1.5407,1.5425,1.5453,1.5471,1.5506,1.5534,1.5563,1.5576,1.5579,1.5579,1.5586,1.5585,1.5581,1.5586,1.5528,1.5578,1.5578,1.5577,1.5577,1.5577,1.5287,1.5305,1.5328,1.5354,1.5371,1.5391,1.541,1.5425,1.5449,1.5479,1.5484,1.5515,1.5539,1.5577,1.5592,1.5617,1.5613,1.5621,1.5624,1.5626,1.5629,1.5576,1.5622,1.5622,1.5622,1.5622,1.5622,0,1.5323,1.5339,1.5362,1.5392,1.5413,1.5414,1.5438,1.5456,1.5483,1.5504,1.5527,1.5562,1.559,1.561,1.5639,1.5656,1.5658,1.5663,1.5663,1.5667,1.5629,1.5622,1.5661,1.5661,1.5661,1.5661,1.5661,1.5661,1.5344,1.5376,1.5385,1.5427,1.5442,1.5473,1.5487,1.5506,1.5524,1.5562,1.5586,1.5599,1.5621,1.5652,1.5679,1.5685,1.5696,1.5702,1.5707,1.5673,1.5669,1.5665,1.5658,1.5704,1.5704,1.5743,1.5743,1.5743]},{"header":{"parameterUnit":"m.s-1","parameterCategory":1,"la1":30.2991,"la2":30.254,"lo1":-89.0895,"lo2":-89.0444,"dx":0.0017,"dy":0.0017,"nx":28,"ny":28,"refTime":"2022-12-30T15:00:00:Z","depth":0,"parameterNumber":3,"parameterNumberName":"V-component_of_WINDS"},"data":[0,0,0,0,0,0,0,0,0,0,0,0,0,0,0,0,0,0,0,0,0,0,0,0,0,0,0,0,0,0,0,0,0,0,0,0,0,0,0,0,0,0,0,0,0,0,0,0,0,0,0,0,0,0,0,0,0,0,1.9399,1.94,0,1.9456,1.9456,1.9457,1.9462,1.9462,1.9461,1.9461,1.9516,1.9518,1.952,0,0,0,0,0,0,0,0,0,0,0,0,0,1.9295,1.9297,1.9399,1.94,1.9401,1.9455,1.9456,1.9457,1.9462,1.9462,1.9461,1.946,1.9515,1.9518,1.952,0,0,0,0,0,0,0,0,0,0,0,0,0,1.9345,1.9297,1.9399,1.941,1.9412,1.9455,1.9456,1.9457,1.9463,1.9462,1.9461,1.946,1.9514,1.9517,1.952,1.9556,0,0,1.9529,1.9531,0,0,0,0,0,0,0,0,1.9342,1.9348,1.9408,1.9409,1.9411,1.9451,1.944,1.949,1.9463,1.9443,1.9461,1.946,1.9495,1.9499,1.9512,1.9559,1.9561,1.953,1.9532,1.9533,1.9534,0,0,0,0,0,0,0,1.9338,1.9346,1.9421,1.9409,1.9411,1.9412,1.9418,1.9449,1.9473,1.9445,1.9445,1.9452,1.9496,1.9509,1.9513,1.9562,1.953,1.9532,1.9534,1.9535,1.9643,1.9644,0,0,0,0,0,0,1.9333,1.9343,1.942,1.9423,1.9374,1.9414,1.9421,1.9439,1.9473,1.9477,1.9453,1.9452,1.9504,1.951,1.9515,1.9561,1.9533,1.9536,1.9537,1.9642,1.9643,1.9644,0,0,0,0,0,0,1.9331,1.934,1.9417,1.9383,1.9393,1.9417,1.9437,1.9441,1.9454,1.9479,1.9483,1.9462,1.9504,1.9511,1.9547,1.9563,1.9537,1.954,1.9641,1.9642,1.9644,1.9652,0,0,0,0,0,0,1.9328,1.9339,1.9353,1.9384,1.9395,1.9448,1.9438,1.9442,1.9459,1.9459,1.9489,1.9493,1.9504,1.9542,1.955,1.9566,1.9542,1.9639,1.9641,1.9643,1.965,1.9653,1.9656,0,0,0,0,0,1.9324,1.9352,1.9354,1.9363,1.9413,1.9449,1.9456,1.9468,1.9461,1.9475,1.9491,1.9492,1.956,1.9546,1.9554,1.9572,1.9638,1.9641,1.9643,1.9649,1.9653,1.9656,0,0,0,0,0,0,1.9322,1.9356,1.9359,1.9398,1.9421,1.945,1.9469,1.9472,1.9497,1.9495,1.9509,1.9516,1.9551,1.9565,1.9549,1.961,1.9598,1.9602,1.96,1.9604,1.9606,1.9603,1.9545,0,0,0,0,0,1.9326,1.9353,1.9381,1.9413,1.9425,1.9445,1.9461,1.9469,1.9493,1.9502,1.9521,1.9544,1.957,1.9587,1.9613,1.9652,1.9659,1.9669,1.9672,1.9674,1.9678,1.9701,1.9706,1.9652,1.9652,1.9652,0,0,1.9335,1.9357,1.9373,1.9413,1.9432,1.946,1.9453,1.9482,1.9502,1.9506,1.9542,1.9556,1.9583,1.9621,1.9638,1.9633,1.9694,1.9677,1.9679,1.9681,1.9704,1.9709,1.9713,1.9654,1.9654,1.9653,0,0,1.9365,1.9384,1.9414,1.9433,1.9462,1.9475,1.9482,1.9512,1.9522,1.9558,1.9562,1.9586,1.9632,1.9651,1.9666,1.9705,1.9707,1.9713,1.9729,1.9751,1.9756,1.976,1.9775,1.978,1.9716,1.9717,1.9717,0,1.9372,1.9414,1.9428,1.9458,1.9476,1.9482,1.9512,1.9529,1.9565,1.9577,1.9571,1.9629,1.9647,1.969,1.97,1.9712,1.9721,1.971,1.9754,1.9758,1.9762,1.9777,1.9782,1.9717,1.9717,1.9717,1.9717,0,1.9422,1.9451,1.9471,1.9508,1.9527,1.9557,1.9575,1.9593,1.96,1.9614,1.9651,1.9673,1.9704,1.9714,1.972,1.9759,1.9755,1.9751,1.974,1.9767,1.9782,1.9787,1.9718,1.9718,1.9718,1.9718,0,0,1.9453,1.9497,1.9504,1.9521,1.9554,1.9577,1.9606,1.9638,1.9654,1.9678,1.9704,1.9743,1.9741,1.9758,1.9766,1.9785,1.9817,1.978,1.978,1.9787,1.9862,1.9866,1.9872,1.9818,1.9819,1.982,1.9861,0,1.9488,1.9543,1.9556,1.9603,1.9631,1.9637,1.9663,1.9686,1.97,1.9725,1.974,1.9768,1.9762,1.9773,1.9792,1.9809,1.9832,1.9806,1.9842,1.9844,1.9837,1.988,1.9883,1.9921,1.9866,1.9867,1.9868,0,1.9536,1.9563,1.9613,1.9644,1.9656,1.968,1.9711,1.9734,1.9761,1.9769,1.979,1.9796,1.9828,1.9815,1.9859,1.984,1.9856,1.9866,1.9868,1.9873,1.9858,1.9887,1.9933,1.9939,1.9876,1.9876,1.9875,0,1.9555,1.9604,1.9641,1.9655,1.9691,1.9708,1.9724,1.9749,1.9768,1.9794,1.9807,1.9836,1.9852,1.9874,1.9889,1.9878,1.9932,1.992,1.9941,1.994,1.9953,1.9952,2.0003,1.996,1.996,1.996,1.996,0,1.9594,1.9624,1.965,1.9673,1.9707,1.9723,1.9756,1.9772,1.9795,1.9821,1.9827,1.9851,1.9868,1.9894,1.9905,1.9941,1.9947,1.9956,1.9958,1.9956,1.9955,1.9967,1.9965,1.9962,1.9961,1.9961,1.9961,0,1.9621,1.964,1.968,1.9712,1.9721,1.9745,1.9772,1.9794,1.9809,1.9841,1.985,1.9872,1.9904,1.992,1.9958,1.9966,2.0006,2.0007,1.9998,1.9999,2.002,2.0018,2.0082,2.0092,2.0041,2.0042,2.0042,0,1.9645,1.9669,1.9704,1.9723,1.974,1.9768,1.9788,1.9804,1.9824,1.9856,1.9875,1.9907,1.9933,1.9983,2.0002,2.0032,2.0034,2.0055,2.0039,2.0036,2.0036,2.0035,2.0038,2.0058,2.0058,2.0058,2.0059,0,1.9687,1.9695,1.9723,1.9756,1.9779,1.9805,1.983,1.9844,1.9864,1.9886,1.9919,1.994,1.998,2.0012,2.0044,2.0059,2.0063,2.0064,2.007,2.0069,2.0063,2.0068,2.0007,2.0062,2.0062,2.0062,2.0061,2.0061,1.9714,1.9736,1.9765,1.9797,1.9818,1.9842,1.9865,1.9883,1.9911,1.9946,1.9953,1.9988,2.0015,2.0058,2.0075,2.0102,2.0098,2.0107,2.011,2.0112,2.0114,2.0058,2.0108,2.0107,2.0107,2.0107,2.0107,0,1.9757,1.9776,1.9805,1.9842,1.9867,1.9868,1.9897,1.9918,1.9949,1.9974,2.0,2.0039,2.007,2.0092,2.0124,2.0142,2.0144,2.015,2.0149,2.0153,2.0115,2.0107,2.0147,2.0147,2.0147,2.0147,2.0147,2.0147,1.9782,1.9821,1.9833,1.9882,1.9901,1.9936,1.9952,1.9975,1.9995,2.0038,2.0064,2.0079,2.0103,2.0137,2.0166,2.0172,2.0184,2.0189,2.0195,2.016,2.0155,2.0151,2.0144,2.0191,2.0191,2.0231,2.0231,2.0232]}]]